Location: ??????
(55.2000°N, 38.3000°E)
Time: 16:52:33
(UTC+00:00)

NOSS 3-1 (C) - Pass Details

Date: 15 November 2025
Orbit: 619 x 1583 km, 63.4° (Epoch: 01 December)

Event Time Altitude Azimuth Distance (km) Brightness Sun altitude
Exits shadow 01:03:10 48° 67° (ENE) 1,073 4.0 -33.2°
Drops below altitude 10° 01:07:40 10° 52° (NE) 2,662 6.5 -32.6°
Sets 01:10:33 0° 51° (NE) 3,769 7.5 -32.2°
